Home > Weather > Kyrenia > Past weeks

Flag for Cyprus Weather for the Past 2 Weeks in Kyrenia, Northern Cyprus, Cyprus

Now
61 °F

Passing clouds.


Feels Like: 61 °F
Forecast: 65 / 79 °F
Wind: No wind

Location: Ercan

Current Time: Apr 30, 2016 at 5:34:52 AM

Latest Report: Apr 30, 2016 at 4:50 AM


Visibility: N/A

Pressure: 29.92 "Hg

Humidity: 94%

Dew Point: 59 °F

Location of KyreniaLocation

Historic Weather in Kyrenia — Graph

°F

Kyrenia Temperature Yesterday

Maximum temperature yesterday: 82 °F (at 1:50 PM)
Minimum temperature yesterday: 52 °F (at 6:20 AM)
Average temperature yesterday: 69 °F

High & Low Weather Summary for the Past Weeks

 TemperatureHumidityPressure
High93 °F (Apr 20, 2:50 PM)94% (Apr 17, 2:50 AM)30.09 "Hg (Apr 17, 2:50 AM)
Low52 °F (Apr 29, 6:20 AM)8% (Apr 20, 2:50 PM)29.62 "Hg (Apr 25, 2:50 AM)
Average71 °F48%29.91 "Hg
* Reported Apr 15 3:20 AM — Apr 30 3:50 AM, Kyrenia, Weather by CustomWeather, © 2016

Note: Actual official high and low records may vary slightly from our data, if they occured in-between our weather recording intervals... More about our weather records

Advertising

Kyrenia Weather History for the Previous 24 Hours

Scroll right to see more
 ConditionsComfort  
Time TempWeatherWind HumidityBarometerVisibility
3:50 AM
Sat, Apr 30
61 °FPassing clouds.7 mph88%29.92 "HgN/A
3:20 AM61 °FClear.13 mph94%29.95 "Hg10 mi
2:50 AM63 °FClear.8 mph83%29.95 "Hg10 mi
2:20 AM63 °FClear.10 mph83%29.95 "Hg10 mi
1:50 AM63 °FClear.9 mph83%29.95 "Hg10 mi
1:20 AM63 °FClear.8 mph83%29.95 "Hg10 mi
12:50 AM63 °FClear.8 mph83%29.95 "Hg10 mi
12:20 AM63 °FClear.10 mph83%29.95 "Hg10 mi
11:50 PM
Fri, Apr 29
64 °FClear.13 mph78%29.95 "Hg10 mi
11:20 PM64 °FClear.14 mph78%29.95 "Hg10 mi
10:50 PM64 °FClear.16 mph78%29.98 "Hg10 mi
10:20 PM66 °FClear.13 mph68%29.98 "Hg10 mi
9:50 PM66 °FClear.14 mph68%29.98 "Hg10 mi
9:20 PM68 °FClear.14 mph64%29.95 "Hg10 mi
8:50 PM70 °FClear.13 mph57%29.95 "Hg10 mi
8:20 PM70 °FSunny.12 mph53%29.95 "Hg10 mi
7:50 PM72 °FScattered clouds.10 mph41%29.95 "HgN/A
7:20 PM75 °FScattered clouds.9 mph36%29.92 "HgN/A
6:50 PM77 °FScattered clouds.10 mph26%29.92 "HgN/A
6:20 PM79 °FScattered clouds.9 mph26%29.92 "HgN/A
5:50 PM79 °FScattered clouds.12 mph28%29.92 "HgN/A
5:20 PM81 °FScattered clouds.9 mph30%29.95 "HgN/A
4:50 PM81 °FScattered clouds.12 mph28%29.95 "HgN/A
4:20 PM81 °FScattered clouds.10 mph26%29.95 "HgN/A
3:50 PM81 °FScattered clouds.13 mph28%29.95 "HgN/A
3:20 PM81 °FScattered clouds.10 mph28%29.98 "HgN/A
2:50 PM81 °FScattered clouds.8 mph28%29.95 "HgN/A
2:20 PM81 °FScattered clouds.14 mph28%29.98 "HgN/A
1:50 PM82 °FScattered clouds.13 mph26%29.98 "HgN/A
1:20 PM81 °FPassing clouds.12 mph28%29.98 "HgN/A
12:50 PM81 °FPassing clouds.8 mph32%29.98 "HgN/A
12:20 PM81 °FPassing clouds.7 mph30%29.98 "HgN/A
11:50 AM79 °FPassing clouds.7 mph32%29.98 "HgN/A
11:20 AM77 °FPassing clouds.7 mph36%30.01 "HgN/A
10:50 AM75 °FPassing clouds.6 mph44%30.01 "HgN/A
10:20 AM73 °FPassing clouds.6 mph47%30.01 "HgN/A
9:50 AM72 °FPassing clouds.6 mph57%30.01 "HgN/A
9:20 AM70 °FPassing clouds.7 mph64%30.01 "HgN/A
8:50 AM68 °FPassing clouds.6 mph69%30.01 "HgN/A
8:20 AM66 °FPassing clouds.3 mph73%30.01 "HgN/A
7:50 AM63 °FScattered clouds.3 mph73%29.98 "HgN/A
7:20 AM57 °FSunny.6 mph82%29.98 "Hg10 mi
6:50 AM54 °FCool.6 mph88%29.98 "Hg5 mi
6:20 AM52 °FPassing clouds.3 mph88%29.98 "Hg5 mi
5:50 AM55 °FPassing clouds.6 mph82%29.95 "Hg5 mi
5:20 AM55 °FClear.5 mph82%29.95 "Hg10 mi
Weather by CustomWeather, © 2016

See weather overviewHow to use our weather pages